Temperature
7 8 8 7 7 7 8 8 8 8 8 8 8 8 8 8 8 8 9 10 10 11 11 12 12 13 13 13 14 14 14 14 15 15 15 15 15 16 16 16 16 16 16
7 7 8 7 7 7 7 7 7 7 7 7 7 7 7 7 7 7 7 8 8 9 9 10 11 11 12 12 13 13 13 14 14 15 15 15 15 15 16 16 16 16 16
7 7 8 7 7 7 7 7 7 7 7 7 6 6 7 7 7 6 7 7 6 7 7 8 9 10 10 11 11 12 12 13 14 14 15 14 14 14 15 15 16 16 16
7 7 7 7 7 6 6 7 6 6 6 5 5 5 5 5 6 5 6 6 6 6 6 6 7 8 9 9 10 10 11 12 13 14 14 14 14 14 14 15 15 15 16
7 7 7 7 7 6 6 6 5 5 4 4 4 4 4 4 4 4 5 5 4 5 5 5 6 6 6 7 9 9 10 10 12 12 13 13 14 14 14 14 15 15 15
7 7 7 7 7 6 5 5 5 4 4 4 4 4 4 4 4 4 4 4 3 3 3 4 4 5 5 6 7 7 8 9 10 11 12 13 13 13 13 14 14 15 15
7 7 7 7 7 6 5 5 5 5 4 4 4 4 4 5 5 4 4 4 3 3 3 3 3 3 3 4 5 6 7 8 9 9 11 11 12 12 13 13 13 14 14
7 7 7 6 6 5 5 5 5 5 5 5 5 5 5 5 4 4 4 4 3 3 3 2 2 2 3 3 4 5 6 7 7 8 9 10 11 11 12 12 13 13 14
6 6 6 6 5 5 4 4 4 4 4 4 4 4 4 4 4 4 4 3 3 2 2 2 2 2 2 2 3 3 4 5 6 6 7 8 9 10 11 11 12 12 13
6 6 6 5 5 4 4 4 4 4 4 4 4 3 3 3 3 3 3 3 2 2 2 2 1 1 2 2 2 3 3 4 4 5 6 6 7 9 9 10 11 11 12
5 5 5 5 4 4 4 4 4 3 3 3 3 3 3 3 2 2 2 2 2 2 1 1 1 1 1 2 2 2 2 2 3 4 4 5 6 7 8 9 10 10 11
4 4 5 4 4 3 3 3 3 3 3 2 2 2 2 1 1 1 1 1 1 1 1 0 0 0 0 0 0 1 0 1 1 2 3 4 5 5 6 7 9 9 10
4 4 4 3 3 3 2 2 2 2 1 1 1 1 0 0 -0 -0 -1 -1 -1 -1 -1 -1 -1 -1 -1 -2 -1 -1 -1 -1 -0 1 2 3 4 4 4 5 7 8 9
3 4 3 3 2 2 2 1 1 1 0 -0 -0 -1 -1 -1 -2 -2 -3 -3 -4 -4 -4 -3 -3 -4 -3 -3 -3 -3 -3 -3 -2 -1 0 2 3 3 4 4 5 7 8
3 3 3 2 2 2 1 1 0 0 -0 -1 -1 -2 -2 -3 -4 -4 -5 -5 -6 -6 -6 -6 -6 -5 -5 -5 -4 -4 -4 -3 -3 -3 -2 0 2 3 3 4 4 5 6
3 3 2 1 1 1 0 0 -0 -1 -1 -2 -2 -3 -4 -5 -6 -6 -6 -7 -7 -7 -7 -7 -7 -7 -7 -6 -6 -6 -5 -4 -4 -3 -3 -2 1 2 2 3 3 3 4
3 2 1 1 1 0 0 -0 -1 -1 -2 -2 -3 -4 -5 -6 -6 -7 -7 -8 -8 -8 -8 -9 -8 -8 -8 -8 -7 -7 -6 -5 -5 -4 -3 -3 -1 0 1 2 2 2 3
2 2 1 1 1 0 0 -0 -1 -1 -2 -3 -4 -5 -6 -6 -7 -8 -8 -9 -9 -9 -10 -9 -9 -9 -9 -9 -9 -8 -7 -7 -6 -5 -4 -3 -2 -2 -1 -1 0 1 2
2 1 1 1 0 0 -0 -1 -1 -2 -3 -3 -4 -5 -6 -6 -7 -9 -9 -10 -10 -10 -10 -10 -10 -10 -10 -10 -10 -9 -8 -8 -7 -5 -5 -4 -3 -3 -3 -2 -1 -0 1
2 1 1 0 -0 -0 -1 -1 -2 -2 -3 -4 -5 -6 -7 -8 -9 -9 -10 -10 -11 -11 -11 -11 -11 -11 -11 -11 -10 -10 -9 -8 -7 -6 -5 -4 -4 -4 -3 -3 -3 -2 -0
1 1 0 -0 -1 -1 -1 -2 -2 -3 -4 -5 -6 -7 -8 -9 -9 -10 -11 -11 -11 -11 -11 -11 -11 -11 -11 -11 -11 -10 -10 -8 -7 -6 -5 -5 -4 -4 -4 -4 -4 -3 -1
1 1 0 -1 -2 -2 -2 -2 -3 -4 -5 -6 -7 -8 -9 -9 -10 -11 -11 -11 -11 -12 -12 -12 -12 -12 -12 -11 -12 -11 -10 -9 -6 -6 -7 -6 -5 -5 -5 -5 -4 -4 -3
1 1 -0 -1 -2 -2 -2 -3 -4 -5 -6 -7 -7 -8 -9 -10 -10 -11 -11 -12 -12 -12 -12 -12 -12 -12 -12 -12 -12 -12 -12 -10 -10 -9 -7 -6 -6 -6 -6 -5 -5 -4 -3
1 1 -0 -1 -2 -2 -3 -4 -5 -5 -7 -7 -8 -9 -10 -10 -11 -11 -11 -12 -12 -12 -12 -12 -12 -12 -12 -12 -12 -12 -12 -12 -12 -10 -9 -8 -7 -7 -6 -6 -5 -4 -4
1 0 -1 -2 -2 -3 -3 -4 -5 -6 -7 -8 -9 -9 -10 -10 -11 -11 -11 -11 -12 -12 -12 -12 -12 -12 -12 -13 -13 -12 -12 -12 -12 -11 -10 -9 -8 -7 -6 -6 -6 -5 -4
1 -0 -1 -2 -2 -3 -3 -4 -5 -6 -7 -8 -9 -10 -10 -11 -11 -11 -11 -11 -11 -11 -12 -12 -12 -12 -12 -12 -13 -13 -12 -12 -12 -11 -10 -9 -8 -8 -7 -6 -6 -5 -4
Wind_Speed
12 18 22 23 23 24 24 25 25 25 26 26 27 27 28 28 28 28 28 28 28 29 29 29 29 28 27 27 27 26 26 26 25 25 25 22 17 15 15 13 11 11 8
13 16 19 22 22 23 23 24 24 25 25 26 27 27 28 28 28 28 28 27 27 28 28 28 28 28 28 27 27 26 26 26 26 26 26 21 14 13 14 15 13 13 10
13 15 18 21 21 21 23 23 24 25 25 26 27 27 28 28 28 28 28 28 27 27 27 27 28 28 28 27 27 26 26 26 27 27 24 17 15 13 14 16 16 16 15
13 14 17 20 20 21 22 23 23 24 24 25 26 26 27 28 28 28 28 28 27 27 27 27 27 27 28 28 27 27 26 26 27 26 18 16 17 16 17 17 18 17 17
12 14 17 20 20 20 21 22 22 23 23 24 25 25 26 26 27 27 27 27 27 27 27 27 27 27 27 27 27 27 27 27 27 21 17 17 16 17 20 20 19 19 18
13 15 17 20 20 20 21 21 22 22 23 24 24 25 25 26 27 26 27 27 26 26 26 27 27 27 27 27 27 27 27 28 26 18 17 17 16 18 23 23 21 20 19
12 14 16 20 20 19 20 21 21 22 22 23 24 25 26 27 27 27 27 27 27 27 27 27 27 27 26 27 27 27 27 28 23 18 16 16 16 20 24 25 24 22 20
11 13 14 17 18 18 19 21 20 21 22 23 24 26 26 26 26 26 27 27 27 27 27 27 27 27 27 27 26 26 26 26 23 19 17 16 16 21 24 25 25 24 22
10 13 14 15 16 15 16 19 19 20 21 21 22 24 25 24 25 25 25 27 27 27 27 27 28 28 27 27 25 25 25 25 21 16 18 15 17 22 24 25 26 25 24
9 11 14 14 15 14 13 15 16 17 19 19 20 23 24 22 23 24 24 27 27 27 27 27 27 28 27 26 24 24 25 22 16 18 16 15 20 23 25 25 26 26 26
8 10 12 13 14 14 13 13 14 15 17 19 19 22 22 20 20 21 23 25 26 26 26 26 27 27 26 22 22 23 21 14 18 16 15 18 23 25 25 25 26 26 26
8 9 10 12 13 13 12 11 12 13 15 16 17 19 18 18 18 20 22 22 23 24 24 23 26 23 20 18 19 20 15 18 17 15 16 21 24 25 25 26 26 26 26
6 7 8 10 12 12 11 11 10 11 12 13 15 16 17 16 16 16 17 18 19 20 19 21 20 18 19 18 18 18 18 18 15 16 18 22 25 25 26 26 27 26 26
6 8 8 9 11 12 11 10 10 10 11 12 13 15 15 15 15 16 15 17 17 16 18 18 17 19 20 20 20 19 19 17 17 17 19 23 25 26 26 26 26 26 25
5 7 8 7 10 11 11 10 10 11 11 13 12 13 16 15 15 16 16 16 17 17 17 18 18 20 20 19 19 20 20 20 20 20 18 23 26 26 26 25 24 24 24
4 6 7 7 9 11 10 11 10 11 12 12 12 14 15 15 15 16 17 17 17 17 18 19 20 19 18 18 19 20 21 21 20 20 20 21 24 24 23 23 22 22 22
2 4 5 7 9 11 11 12 10 11 12 12 12 13 15 16 17 17 16 16 17 18 20 19 20 18 16 17 18 19 19 20 20 21 21 19 19 20 20 20 19 20 21
0 3 4 7 9 11 11 11 10 11 12 11 12 13 15 17 17 17 16 17 18 19 18 17 15 15 15 16 17 16 16 18 20 21 20 19 17 16 15 15 16 18 19
1 2 4 7 9 11 12 11 11 11 11 11 11 13 16 17 18 18 16 17 19 18 17 16 14 15 17 17 17 17 17 17 17 19 18 17 16 15 13 12 15 17 18
2 2 4 6 9 11 10 10 10 10 11 11 11 13 17 17 18 18 16 18 18 16 14 15 17 17 16 17 17 18 17 18 17 16 15 12 12 13 12 12 13 14 16
4 2 4 6 8 9 8 8 9 10 9 10 11 14 15 17 18 17 16 17 17 14 16 17 17 18 17 16 17 18 18 18 16 12 9 10 11 11 11 12 13 13 13
4 1 3 5 7 8 8 8 8 10 9 10 11 13 15 17 17 16 17 17 17 15 17 17 17 16 16 15 15 17 14 14 8 8 11 11 11 9 10 13 14 14 14
4 1 3 5 6 8 9 8 9 8 8 8 10 11 15 17 17 17 18 18 19 17 16 18 18 19 16 16 14 11 10 10 14 11 12 10 9 10 12 12 14 14 15
4 1 1 4 6 7 8 8 11 9 10 11 10 11 16 16 17 17 18 19 19 18 17 18 17 17 18 16 14 13 13 14 12 10 10 12 14 14 13 12 12 13 15
5 2 1 3 5 6 8 9 10 10 10 10 11 13 14 15 16 17 18 19 19 17 18 18 18 17 15 15 14 14 14 14 14 14 15 14 13 12 12 13 12 12 13
5 2 1 3 4 6 7 8 10 11 12 13 13 13 12 12 14 17 19 19 19 18 18 18 17 17 15 16 14 13 13 12 12 12 14 15 14 13 14 13 12 11 10
Wind_Direction
347 346 348 355 4 9 12 13 14 14 14 14 14 14 14 13 12 10 8 6 5 3 2 1 -0 359 359 358 358 355 352 351 350 348 343 332 317 312 310 307 294 272 255
341 347 349 1 7 10 13 14 14 14 15 14 14 13 12 11 10 9 7 6 4 2 0 359 357 356 356 355 355 353 351 349 348 345 337 323 311 308 307 305 299 287 286
356 354 355 7 9 11 14 14 14 14 15 14 13 13 11 9 8 7 6 4 3 1 359 357 355 353 352 352 351 350 348 348 346 341 330 324 323 315 311 305 299 288 278
6 2 2 8 10 12 14 14 14 14 15 14 13 12 10 8 7 6 4 2 1 360 358 356 353 351 350 348 347 346 346 345 343 335 330 331 325 321 320 311 302 292 282
17 11 8 11 12 13 15 14 15 14 15 14 13 11 10 8 5 4 3 1 360 358 356 354 352 350 348 346 344 343 343 342 339 330 332 330 325 323 325 317 307 297 288
23 17 14 14 15 16 17 16 16 15 14 12 10 9 7 5 3 2 1 358 357 356 354 352 350 348 346 343 341 340 340 341 333 330 329 325 322 325 326 321 312 301 289
24 19 17 17 18 18 18 17 15 14 13 10 7 5 3 1 359 357 357 354 353 352 351 349 347 345 343 341 338 337 336 336 329 324 322 318 318 323 324 324 322 314 298
25 20 20 19 19 18 17 16 14 13 11 8 4 1 359 357 355 353 353 351 349 348 346 345 343 341 339 338 335 334 332 331 324 318 318 312 315 321 322 322 322 319 313
27 24 21 18 15 12 13 14 12 12 8 5 1 358 355 353 351 350 350 347 345 344 342 341 339 337 335 333 330 330 330 326 315 315 313 310 317 319 317 318 318 317 315
30 26 20 16 12 5 5 10 9 9 6 1 359 357 353 350 349 347 346 344 342 340 339 336 335 333 332 328 326 326 325 317 315 314 309 308 316 315 312 312 314 313 312
33 27 19 12 7 1 358 360 2 3 3 0 358 356 353 349 346 343 341 339 338 336 335 332 332 330 328 323 323 324 320 315 315 308 304 307 311 310 308 307 308 308 307
29 23 18 10 4 359 356 355 358 360 359 358 355 352 348 343 339 337 334 334 333 332 331 330 329 327 327 323 323 321 316 315 309 304 302 306 307 307 305 304 303 302 301
31 24 17 9 1 358 354 353 355 353 352 351 351 348 342 339 335 334 332 331 330 329 330 327 326 326 323 319 316 314 311 311 305 303 300 301 304 304 303 300 298 296 296
34 24 14 4 359 357 354 352 353 351 348 346 343 344 343 337 333 332 327 325 324 324 323 322 319 318 316 313 311 309 307 305 302 300 296 297 299 301 300 297 294 292 290
36 21 10 355 357 355 353 350 351 350 346 341 339 341 340 333 329 327 323 321 319 319 319 318 315 315 312 310 307 306 304 302 298 295 293 293 294 295 295 293 291 289 288
37 17 3 353 356 353 352 350 348 346 342 338 338 337 336 331 326 323 320 318 317 317 317 313 310 310 308 308 305 304 301 299 294 293 291 292 290 289 289 290 289 289 289
46 8 359 349 351 349 348 348 345 344 341 336 334 333 334 331 327 324 319 318 317 317 315 311 310 308 307 306 304 303 300 297 294 291 290 288 286 284 282 284 289 291 290
105 352 351 346 344 346 345 343 343 342 340 335 333 332 335 333 331 326 321 318 318 317 314 312 310 310 308 307 305 303 301 296 291 290 288 282 278 278 278 281 290 292 292
197 336 340 347 343 342 339 338 339 337 335 334 334 336 337 334 332 328 321 318 320 317 314 311 310 309 307 306 304 302 299 295 291 287 282 277 272 270 273 283 291 291 291
199 307 338 344 343 340 338 337 336 336 336 335 335 335 335 332 331 328 321 321 320 316 314 313 311 307 304 304 304 301 298 293 283 277 274 272 270 268 272 289 295 292 290
206 287 340 340 344 344 342 341 337 335 332 331 331 330 329 330 329 326 322 320 318 314 312 309 308 306 305 305 305 305 303 290 276 271 273 280 276 275 280 291 293 295 293
210 283 332 341 342 345 342 333 326 323 321 321 325 327 328 328 325 322 319 317 314 312 309 308 308 305 303 303 305 307 310 307 277 313 299 283 278 288 294 293 293 291 290
204 275 337 337 336 341 339 331 327 323 324 331 333 329 328 325 321 319 317 316 313 312 308 307 306 302 301 301 295 294 298 300 323 297 290 285 294 301 295 292 290 288 289
178 154 320 330 333 341 340 337 337 332 331 332 329 323 323 322 320 319 318 317 314 312 308 307 303 299 297 296 294 287 278 283 288 298 297 300 298 291 291 292 290 288 285
158 164 304 322 330 341 342 339 334 330 328 325 326 324 325 324 322 322 324 322 320 316 312 309 304 299 294 291 290 289 284 281 273 273 286 294 295 293 291 291 288 285 284
161 178 280 313 329 342 342 339 335 331 329 327 329 327 328 325 324 327 329 327 325 321 317 315 308 302 296 290 287 283 281 279 279 278 284 292 295 296 294 290 284 281 281
Height
1628 1625 1622 1620 1617 1614 1610 1606 1602 1598 1595 1591 1588 1584 1580 1577 1574 1571 1568 1565 1562 1560 1557 1555 1552 1550 1548 1546 1545 1543 1542 1541 1540 1539 1538 1538 1538 1538 1538 1538 1537 1537 1537
1627 1624 1622 1619 1616 1613 1609 1605 1601 1598 1594 1590 1586 1583 1579 1576 1573 1569 1566 1563 1560 1557 1555 1552 1550 1547 1545 1543 1541 1539 1538 1537 1536 1536 1536 1536 1536 1536 1536 1536 1535 1535 1535
1626 1624 1621 1618 1615 1612 1608 1604 1600 1597 1593 1589 1585 1581 1578 1574 1571 1568 1564 1561 1558 1555 1552 1550 1547 1545 1542 1539 1537 1535 1534 1532 1532 1532 1533 1533 1533 1533 1533 1533 1533 1533 1533
1626 1623 1620 1617 1614 1611 1607 1603 1599 1596 1592 1588 1584 1580 1577 1573 1569 1566 1563 1559 1556 1553 1550 1547 1544 1541 1539 1536 1534 1531 1529 1527 1527 1528 1528 1528 1528 1529 1529 1530 1530 1530 1530
1625 1622 1620 1616 1613 1610 1606 1602 1598 1594 1591 1587 1583 1579 1575 1572 1568 1564 1561 1558 1554 1551 1548 1545 1542 1539 1536 1533 1530 1527 1525 1522 1522 1523 1523 1523 1524 1524 1524 1525 1526 1526 1527
1625 1622 1619 1616 1612 1608 1604 1601 1597 1593 1590 1586 1582 1579 1575 1571 1567 1563 1559 1556 1552 1549 1545 1542 1539 1536 1532 1529 1526 1523 1520 1518 1518 1517 1517 1518 1518 1518 1519 1520 1521 1522 1523
1624 1621 1618 1615 1611 1607 1603 1600 1596 1593 1589 1585 1582 1578 1574 1570 1566 1562 1558 1554 1550 1546 1542 1539 1535 1532 1529 1526 1523 1519 1516 1514 1513 1511 1511 1511 1512 1512 1513 1514 1515 1516 1517
1623 1620 1617 1613 1610 1606 1602 1599 1596 1592 1588 1585 1581 1577 1573 1568 1564 1560 1556 1552 1548 1544 1540 1535 1531 1528 1525 1522 1519 1515 1512 1509 1508 1507 1505 1505 1505 1506 1506 1507 1508 1510 1511
1622 1619 1616 1612 1608 1604 1601 1598 1595 1591 1587 1583 1579 1575 1571 1567 1563 1558 1554 1550 1545 1541 1537 1532 1528 1524 1520 1517 1514 1511 1508 1505 1503 1501 1500 1499 1498 1498 1500 1501 1502 1503 1504
1621 1618 1615 1611 1607 1603 1599 1596 1593 1589 1585 1581 1577 1573 1569 1565 1561 1556 1551 1547 1542 1538 1533 1528 1524 1519 1515 1512 1509 1505 1503 1501 1499 1496 1494 1493 1491 1491 1492 1493 1494 1496 1497
1620 1617 1613 1609 1605 1601 1598 1595 1591 1588 1584 1580 1576 1571 1567 1562 1558 1553 1548 1543 1539 1534 1529 1525 1520 1515 1511 1507 1503 1500 1497 1496 1493 1490 1488 1486 1484 1483 1484 1485 1487 1488 1490
1619 1615 1611 1607 1603 1600 1596 1593 1590 1586 1582 1578 1573 1569 1564 1559 1554 1549 1545 1540 1535 1530 1525 1520 1516 1511 1506 1502 1498 1495 1492 1489 1487 1485 1482 1480 1478 1477 1476 1477 1478 1480 1482
1617 1614 1610 1606 1601 1598 1594 1591 1587 1583 1578 1574 1569 1565 1560 1555 1550 1545 1540 1535 1530 1525 1520 1515 1511 1506 1502 1497 1493 1490 1486 1483 1480 1478 1476 1474 1472 1470 1469 1469 1470 1472 1474
1615 1612 1608 1604 1599 1596 1592 1588 1584 1580 1575 1571 1566 1561 1556 1551 1546 1541 1535 1530 1525 1520 1515 1510 1505 1501 1497 1493 1489 1485 1481 1478 1474 1471 1468 1467 1465 1463 1462 1461 1462 1464 1466
1613 1610 1606 1601 1597 1594 1590 1586 1582 1578 1573 1568 1563 1558 1553 1547 1542 1537 1532 1526 1521 1516 1511 1506 1501 1496 1491 1487 1483 1479 1475 1471 1468 1465 1461 1459 1457 1456 1454 1454 1455 1456 1458
1611 1608 1604 1599 1595 1592 1588 1584 1580 1576 1571 1566 1561 1555 1550 1544 1538 1533 1528 1523 1518 1512 1506 1501 1496 1490 1485 1481 1476 1472 1468 1464 1461 1458 1455 1452 1450 1448 1447 1447 1447 1448 1449
1608 1605 1601 1597 1594 1590 1586 1582 1578 1573 1568 1563 1558 1552 1546 1541 1535 1530 1524 1519 1514 1508 1502 1496 1491 1486 1480 1475 1470 1465 1461 1457 1454 1451 1448 1445 1443 1441 1440 1439 1439 1440 1441
1605 1602 1599 1595 1592 1588 1584 1580 1576 1571 1566 1560 1554 1549 1543 1537 1532 1526 1521 1515 1509 1504 1498 1492 1487 1481 1475 1470 1464 1459 1454 1450 1446 1443 1441 1438 1436 1435 1434 1432 1431 1432 1432
1602 1599 1596 1593 1589 1586 1582 1578 1573 1568 1563 1557 1552 1546 1540 1534 1528 1523 1517 1511 1506 1500 1494 1489 1483 1478 1471 1465 1459 1453 1448 1443 1439 1436 1434 1432 1430 1429 1428 1427 1425 1424 1424
1599 1597 1594 1590 1587 1583 1580 1576 1571 1566 1561 1555 1549 1543 1537 1531 1525 1519 1513 1508 1502 1496 1491 1486 1480 1474 1468 1462 1455 1448 1442 1436 1432 1429 1427 1426 1424 1424 1423 1421 1419 1418 1417
1596 1594 1591 1588 1584 1580 1576 1572 1568 1563 1557 1551 1546 1540 1534 1528 1522 1516 1510 1505 1499 1493 1487 1481 1476 1470 1464 1458 1451 1443 1436 1431 1427 1424 1422 1421 1419 1419 1417 1415 1413 1412 1411
1593 1591 1588 1585 1581 1577 1573 1569 1564 1558 1553 1548 1542 1537 1531 1525 1519 1513 1507 1502 1496 1489 1483 1478 1472 1466 1460 1455 1450 1442 1433 1428 1422 1420 1417 1416 1415 1413 1411 1409 1408 1406 1405
1590 1588 1585 1581 1578 1574 1570 1566 1561 1556 1551 1546 1540 1534 1528 1522 1516 1510 1504 1498 1492 1486 1479 1474 1468 1462 1455 1451 1447 1442 1436 1427 1423 1417 1415 1412 1410 1408 1406 1403 1401 1400 1399
1586 1585 1582 1578 1575 1571 1567 1563 1558 1553 1548 1543 1536 1530 1525 1519 1513 1507 1501 1495 1489 1483 1476 1469 1463 1457 1451 1445 1441 1438 1434 1429 1425 1416 1412 1409 1406 1403 1400 1398 1396 1394 1393
1583 1581 1578 1575 1572 1569 1565 1560 1555 1550 1545 1539 1533 1528 1522 1517 1511 1505 1499 1492 1486 1479 1472 1465 1458 1452 1447 1441 1437 1433 1429 1426 1422 1417 1410 1405 1402 1399 1396 1393 1390 1389 1388
1579 1578 1575 1572 1569 1566 1562 1558 1553 1548 1542 1536 1531 1525 1519 1513 1508 1502 1496 1490 1483 1476 1469 1462 1454 1448 1442 1437 1432 1428 1424 1421 1417 1414 1408 1402 1397 1394 1391 1388 1386 1384 1383